Find Starlink 11442

NORAD ID: 62885 Int'l Des: 2025-024 Owner: SPXS Country: US Constellation: starlink operational
又名: STARLINK-11442 [DTC] celestrak
LEOCIRCULAR

当前视图

正在加载3D地球...

About Starlink 11442

Starlink 11442 (NORAD 62885) is a starlink constellation satellite (v2 mini d2c) launched Feb 4, 2025 by SPXS of US. It operates in LEO, CIRCULAR orbit with a mass of 960.00 kg.

即将过境

Passes for default location (London). Set your location on the main map for personalized predictions.

高度历史

Loading altitude history...

两行轨道根数

1 62885U 25024G 26263.90792823 .00135291 00000-0 10374-2 0 9999
2 62885 42.9998 84.3616 0001061 281.7291 78.3458 15.70918326 94176
Epoch: Sep 20, 2026 • Age: 34 hours

当前状态

高度 358.3 km
远地点 / 近地点 N/A
速度 7.70 km/s
星下点 -15.89°S, 148.9°E
发射日期 Feb 4, 2025
运行时间 1.6 years
类型 internet

技术详情

分类 Payload
质量 960.00 kg
干质量 910.00 kg
长度 0.30 m
跨度 29.00 m
形状 ? Box + pan
制造商 SPXS
平台类型 Starlink V2MD
阶段状态 In Orbit
所有者/国家 SPXS/US

Most Searched